Location: Shepherdstown, WV
(39.4326°N, 77.8042°W)
Time: 16:42:23
(UTC-04:00)

Tiros 1 despin weight - Pass Details

Date: 02 August 2021
Orbit: 593 x 641 km, 48.2° (Epoch: 18 September)

Event Time Altitude Azimuth Distance (km) Brightness Sun altitude
Rises 20:26:06 0° 296° (WNW) 2,938 ? -1.5°
Reaches altitude 10° 20:28:34 10° 288° (WNW) 2,022 ? -1.9°
Maximum altitude 20:32:52 37° 221° (SW) 976 ? -2.7°
Drops below altitude 10° 20:37:06 10° 154° (SSE) 1,991 ? -3.4°
Enters shadow 20:39:22 - 146° (SSE) 2,836 ? -3.8°
Sets 20:39:31 0° 146° (SE) 2,887 - -3.9°
